Tracking 19709 objects as of 20-Jun-2019
HD Live streaming from Space Station
objects crossing your sky now

FACSAT 1

Track FACSAT 1 now!
10-day predictions


NORAD ID: 43721
Int'l Code: 2018-096C
Perigee: 482.4 km
Apogee: 505.8 km
Inclination: 97.5 °
Period: 94.3 minutes
Semi major axis: 6865 km
RCS: Unknown
Launch date: November 29, 2018
Source: (TBD)
Launch site: SRIHARIKOTA (SRI)
aabbcc
Your satellite tracking list
Your tracking list is empty




NASA's NSSDC Master Catalog

Two Line Element Set (TLE):
1 43721U 18096C   19170.78432108  .00000780  00000-0  32850-4 0  9999
2 43721  97.4596 240.6480 0017028 330.9110  29.1178 15.26284133 30903
Source of the keplerian elements: AFSPC